Date String (YYYY-MM-DD hh:mm:ss) UTC,Instrument flags,Ambient pressure (hPa),Sample flow (lpm),Bypass flow (lpm),Sample temperature (°C),Ambient temperature (°C),ASC tube jacket temperature (°C),LED temperature (°C),Box temperature (°C),Sample RH (%),Span deviation,Mass concentration (μg/m³),Mass concentration (μg/m³),Mass concentration (μg/m³)
DateTimeUTC,F1_M11,P_M11,Q1_M11,Q2_M11,T1_M11,T2_M11,T3_M11,T4_M11,T5_M11,U1_M11,ZSPAN_M11,X0_M11,X2_M11,X1_M11
2022-04-11 11:00:00,,0817.4,4.99,0.00,22.3,21.4,00.0,31.4,24.0,06.3,0000.0,0012.75,0004.40,0002.28
2022-04-11 11:01:00,,0817.4,4.99,0.00,22.3,21.4,00.0,31.4,24.0,06.2,0000.0,0013.42,0004.46,0002.28
2022-04-11 11:02:00,,0817.4,5.00,0.00,22.3,21.4,00.0,31.4,24.0,06.2,0000.0,0014.44,0004.52,0002.30
2022-04-11 11:03:00,,0817.4,5.00,0.00,22.3,21.3,00.0,31.3,24.0,06.1,0000.0,0015.05,0004.49,0002.32
2022-04-11 11:04:00,,0817.3,5.01,0.00,22.3,21.3,00.0,31.3,24.0,06.1,0000.0,0015.23,0004.51,0002.32
2022-04-11 11:05:00,,0817.4,5.01,0.00,22.2,21.3,00.0,31.3,23.9,06.2,0000.0,0015.77,0004.58,0002.32
2022-04-11 11:06:00,,0817.4,5.00,0.00,22.2,21.3,00.0,31.3,23.9,06.3,0000.0,0015.46,0004.64,0002.35
2022-04-11 11:07:00,,0817.4,5.00,0.00,22.2,21.4,00.0,31.3,23.9,06.5,0000.0,0015.06,0004.61,0002.37
2022-04-11 11:08:00,,0817.4,4.99,0.00,22.3,22.1,00.0,31.3,24.1,07.1,0000.0,0015.60,0004.56,0002.39
2022-04-11 11:09:00,,0817.5,5.00,0.00,22.4,23.0,00.0,31.4,24.4,07.2,0000.0,0015.85,0004.52,0002.42
2022-04-11 11:10:00,,0817.5,5.00,0.00,22.6,23.2,00.0,31.4,24.5,07.1,0000.0,0016.38,0004.49,0002.41
2022-04-11 11:11:00,,0817.4,4.99,0.00,22.6,22.9,00.0,31.4,24.5,06.8,0000.0,0016.16,0004.57,0002.41
2022-04-11 11:12:00,,0817.5,5.01,0.00,22.6,22.6,00.0,31.4,24.4,06.7,0000.0,0016.31,0004.59,0002.42
2022-04-11 11:13:00,,0817.5,5.01,0.00,22.6,22.4,00.0,31.4,24.3,06.6,0000.0,0015.75,0004.61,0002.44
2022-04-11 11:14:00,,0817.6,4.98,0.00,22.5,22.2,00.0,31.4,24.3,07.1,0000.0,0015.39,0004.56,0002.42
2022-04-11 11:15:00,,0817.5,5.00,0.00,22.5,22.0,00.0,31.4,24.3,07.5,0000.0,0015.00,0004.58,0002.44
2022-04-11 11:16:00,,0817.4,5.00,0.00,22.5,21.9,00.0,31.4,24.2,07.1,0000.0,0014.90,0004.58,0002.45
2022-04-11 11:17:00,,0817.4,5.00,0.00,22.5,21.8,00.0,31.4,24.2,06.7,0000.0,0015.08,0004.61,0002.46
2022-04-11 11:18:00,,0817.5,5.00,0.00,22.4,21.7,00.0,31.4,24.2,06.4,0000.0,0015.06,0004.58,0002.44
2022-04-11 11:19:00,,0817.6,5.00,0.00,22.4,21.6,00.0,31.4,24.1,06.4,0000.0,0014.38,0004.53,0002.41
2022-04-11 11:20:00,,0817.6,5.00,0.00,22.4,21.6,00.0,31.4,24.2,06.4,0000.0,0014.12,0004.49,0002.37
2022-04-11 11:21:00,,0817.6,5.01,0.00,22.4,21.6,00.0,31.4,24.2,06.3,0000.0,0013.35,0004.45,0002.34
2022-04-11 11:22:00,,0817.6,4.99,0.00,22.4,21.5,00.0,31.4,24.2,06.2,0000.0,0012.68,0004.31,0002.30
2022-04-11 11:23:00,,0817.5,5.00,0.00,22.4,21.5,00.0,31.4,24.2,06.2,0000.0,0011.73,0004.21,0002.27
2022-04-11 11:24:00,,0817.5,4.99,0.00,22.4,21.5,00.0,31.4,24.2,06.3,0000.0,0011.30,0004.13,0002.23
2022-04-11 11:25:00,,0817.5,5.00,0.00,22.4,21.5,00.0,31.4,24.2,06.2,0000.0,0010.69,0004.10,0002.20
2022-04-11 11:26:00,,0817.6,5.00,0.00,22.4,21.5,00.0,31.4,24.2,06.2,0000.0,0010.31,0003.95,0002.16
2022-04-11 11:27:00,,0817.6,5.00,0.00,22.4,21.5,00.0,31.4,24.1,06.2,0000.0,0009.59,0003.87,0002.12
2022-04-11 11:28:00,,0817.6,5.00,0.00,22.4,21.4,00.0,31.4,24.1,06.2,0000.0,0009.23,0003.77,0002.07
2022-04-11 11:29:00,,0817.6,5.00,0.00,22.3,21.4,00.0,31.3,24.1,06.2,0000.0,0009.19,0003.70,0002.03
2022-04-11 11:30:00,,0817.5,5.01,0.00,22.3,21.4,00.0,31.3,24.1,06.1,0000.0,0009.20,0003.73,0002.01
2022-04-11 11:31:00,,0817.5,5.01,0.00,22.3,21.4,00.0,31.3,24.1,06.1,0000.0,0008.85,0003.72,0001.99
2022-04-11 11:32:00,,0817.4,5.00,0.00,22.3,21.4,00.0,31.3,24.1,06.0,0000.0,0008.78,0003.70,0001.99
2022-04-11 11:33:00,,0817.5,5.01,0.00,22.3,21.5,00.0,31.3,24.1,06.0,0000.0,0009.01,0003.71,0001.99
2022-04-11 11:34:00,,0817.5,4.98,0.00,22.4,22.2,00.0,31.4,24.3,05.9,0000.0,0009.05,0003.74,0001.98
2022-04-11 11:35:00,,0817.5,5.00,0.00,22.5,23.1,00.0,31.4,24.5,05.8,0000.0,0009.68,0003.76,0001.96
2022-04-11 11:36:00,,0817.5,5.00,0.00,22.7,23.4,00.0,31.4,24.7,05.7,0000.0,0009.76,0003.71,0001.94
2022-04-11 11:37:00,,0817.4,4.99,0.00,22.7,23.2,00.0,31.5,24.6,05.7,0000.0,0009.89,0003.73,0001.92
2022-04-11 11:38:00,,0817.4,5.01,0.00,22.7,22.9,00.0,31.5,24.6,05.6,0000.0,0009.97,0003.75,0001.91
2022-04-11 11:39:00,,0817.4,5.01,0.00,22.7,22.6,00.0,31.5,24.5,05.5,0000.0,0009.59,0003.68,0001.89
2022-04-11 11:40:00,,0817.4,4.98,0.00,22.7,22.4,00.0,31.5,24.5,05.4,0000.0,0009.31,0003.64,0001.88
2022-04-11 11:41:00,,0817.4,5.00,0.00,22.7,22.3,00.0,31.5,24.5,05.4,0000.0,0009.19,0003.59,0001.87
2022-04-11 11:42:00,,0817.5,5.00,0.00,22.7,22.1,00.0,31.5,24.5,05.2,0000.0,0009.09,0003.55,0001.86
2022-04-11 11:43:00,,0817.4,5.01,0.00,22.6,22.0,00.0,31.5,24.5,05.1,0000.0,0009.23,0003.55,0001.83
2022-04-11 11:44:00,,0817.5,5.00,0.00,22.6,22.0,00.0,31.5,24.5,05.1,0000.0,0009.02,0003.51,0001.79
2022-04-11 11:45:00,,0817.5,5.00,0.00,22.6,21.9,00.0,31.5,24.5,05.1,0000.0,0008.94,0003.47,0001.76
2022-04-11 11:46:00,,0817.5,5.00,0.00,22.6,21.8,00.0,31.5,24.4,05.1,0000.0,0008.42,0003.38,0001.74
2022-04-11 11:47:00,,0817.3,5.01,0.00,22.6,21.8,00.0,31.5,24.4,05.1,0000.0,0008.48,0003.34,0001.74
2022-04-11 11:48:00,,0817.3,5.00,0.00,22.6,21.7,00.0,31.5,24.4,05.1,0000.0,0008.34,0003.30,0001.73
2022-04-11 11:49:00,,0817.4,5.00,0.00,22.6,21.7,00.0,31.5,24.4,05.1,0000.0,0008.79,0003.24,0001.73
2022-04-11 11:50:00,,0817.4,5.00,0.00,22.6,21.7,00.0,31.5,24.4,05.1,0000.0,0008.93,0003.25,0001.73
2022-04-11 11:51:00,,0817.4,5.00,0.00,22.6,21.7,00.0,31.5,24.3,05.2,0000.0,0008.99,0003.30,0001.73
2022-04-11 11:52:00,,0817.4,5.00,0.00,22.5,21.6,00.0,31.5,24.3,05.3,0000.0,0008.96,0003.30,0001.72
2022-04-11 11:53:00,,0817.3,5.00,0.00,22.5,21.6,00.0,31.5,24.3,05.2,0000.0,0008.77,0003.25,0001.72
2022-04-11 11:54:00,,0817.3,5.00,0.00,22.5,21.6,00.0,31.5,24.3,05.2,0000.0,0008.80,0003.22,0001.74
2022-04-11 11:55:00,,0817.4,5.00,0.00,22.5,21.5,00.0,31.5,24.3,05.2,0000.0,0008.72,0003.20,0001.75
2022-04-11 11:56:00,,0817.4,5.00,0.00,22.5,21.5,00.0,31.5,24.3,05.1,0000.0,0008.53,0003.17,0001.75
2022-04-11 11:57:00,,0817.4,5.00,0.00,22.5,21.5,00.0,31.5,24.2,05.1,0000.0,0008.77,0003.20,0001.75
2022-04-11 11:58:00,,0817.3,5.00,0.00,22.5,21.5,00.0,31.4,24.2,05.1,0000.0,0008.79,0003.23,0001.73
2022-04-11 11:59:00,,0817.4,5.02,0.00,22.4,21.5,00.0,31.4,24.2,05.8,0000.0,0008.98,0003.25,0001.75
